Weather in Kondrykino

Russia / Nizhny Novgorod Oblast'     54°54′59″N   45°02′17″E
temp.,
°C
wind,
m/s
gust,
m/s
humid.,
%
clouds,
%
prec.,
mm/h
press.,
hPa
HPBL,
m
13 june, sun
sun1300:00+15sse3593100 0.0 100981
03:00+14sse349451 0.0 100960
06:00+16s47925 0.0 1009247
09:00+20s578014 0.0 1009728
12:00+22s57688 0.1 10091354
15:00+21s697884 2.1 10091088
18:00+20ssw6108569 3.1 1008638
21:00+16sw389438 3.7 1010164
14 june, mon
mon1400:00+15ssw349442 0.0 101158
03:00+14sw339696 0.0 101254
06:00+17ssw3493100 0.0 1014172
09:00+20sw3483100 0.0 1015565
12:00+23sw2369100 0.0 10151207
15:00+24sw236116 0.1 10151551
18:00+24wsw13735 0.1 1014733
21:00+18nw228514 0.6 101511
15 june, tue
tue1500:00+17nnw228622 0.0 101512
03:00+16wnw118730 0.0 101511
06:00+18ene1185100 0.0 101585
09:00+22ene1174100 0.0 1014437
12:00+24e1264100 0.0 10131148
15:00+26e125896 0.1 10121554
18:00+24ese1275100 0.3 101154
21:00+19s3386100 4.0 101238
16 june, wed
wed1600:00+19sw1185100 0.0 101011
03:00+16ssw11867 0.0 101011
06:00+18wsw249074 0.3 1011136
09:00+19n1291100 0.6 101054
12:00+24wnw126445 0.0 1009907
15:00+24nw446831 0.7 10091094
18:00+19nnw359092 3.4 1010122
21:00+17nnw4129345 3.4 1012335
17 june, thu
thu1700:00+14nnw39930 0.0 1014178
03:00+12nnw34930 0.0 101672
06:00+13nnw388454 0.0 1018232
09:00+17n47620 0.0 1019609
12:00+19nnw57560 0.0 10201651
15:00+19nnw57570 0.0 10201676
18:00+18nnw58720 0.0 1021508
21:00+13nw37770 0.0 1022106